STARLINK-38393, 100513

Orbit data source: Space-Track

STARLINK-38393, 100513 is a payload satellite owned by SpaceX/Seattle (US) in LEO that was launched on Wed, 26 Aug 2026 UTC launched from the Air Force Western Test Range (AFWTR). Payload-class satellites include a variety of spacecraft equipped with specific instruments for various scientific and technological missions. These include communications satellites like Starlink; space stations such as the ISS; scientific satellites like the Hubble; Earth observation satellites from companies like Planet Labs, Umbra, and HawkEye 360; GPS; miniature CubeSats for education and research; and military/defense satellites.

Loading next visibility...
Identifier
100513, 2026-197M
Orbit
LEO
Country
Flag of USUS
Related business
Manufacturer
SpaceX/Seattle
Mission
Operational spacecraft
Bus & Motor
STARLINK V2MO, Unknown motor
Mass
575 kg wet, ~530 kg dry
Launch date (UTC)
2026-08-26 (2 weeks ago)
Launch vehicle
Unknown
Launch site
Air Force Western Test Range (AFWTR)
Object type
Payload
Rocket body
Debris
Shape & HBR
BOX + PAN, 17.7 m
Radar Cross Section
RCS unknown

Expand to show TLE details & history
Last TLE update: 11 hours ago

TLE from 11 hours ago
0 STARLINK-38393
1 A0513U 26197M   26251.36683039  .00165025  00000-0  78641-3 0  9996
2 A0513  69.9990 156.2437 0003923 273.9440  86.1313 15.82233617  2076
Epoch: 2026-09-08T08:48Z
TLE epoch observation values (Epoch: 2026-09-08T08:48:14.145Z)
Latitude
-0.00008°
Longitude
36.75047°
Altitude
326.463 km
Speed
7.713 km/s
True Right ascension
10h 24m 58s
True Declination
0° 00' 00"
Sunlit
Object was in daylight at epoch
Visualization orbit readout
Latitude
Unknown
Longitude
Unknown
Altitude
Unknown
Speed
Unknown
Apparent Right ascension
Unknown
Apparent Declination
Unknown
Sunlit
N/A
Visualization observer readout
Local Sidereal Time
11:43:44
Azimuth
Unknown
Elevation
Unknown
Doppler factor
Unknown
Orbital elements
Apogee altitude
324.626 km
Perigee altitude
319.369 km
Semi-major axis
6,700.135 km
Eccentricity
0.00039
Inclination
69.999°
RAAN
156.2437°
Arg. of periapsis
273.944°
True anomaly
86.17615°
Mean anomaly
86.1313°
Eccentric anomaly
86.15373°
Mean motion
3.95747 °/min
Orbital period
90.97 mins
BSTAR
0.00078641
Loading maneuver chart data...
Computing Atmospheric mass density...
Loading historical data...
Loading historical data...
Loading historical data...
Loading historical data...
Loading historical data...
Loading historical data...
Loading historical data...

Documentation

Showing up to 5 results
|